Weather History for Glasgow, United Kingdom

Change the Weather History Date:

Friday, October 5, 2012

  Actual Average Record
Temperature  
Mean Temperature 46 °F -  
Max Temperature 53 °F 52 °F 66 °F (2001)
Min Temperature 39 °F 41 °F 26 °F (1999)
Degree Days  
Heating Degree Days 19    
Moisture  
Dew Point 42 °F    
Average Humidity 86    
Maximum Humidity 100    
Minimum Humidity 67    
Precipitation  
Precipitation 0.00 in - - ()
Sea Level Pressure  
Sea Level Pressure 29.57 in    
Wind  
Wind Speed 4 mph ()    
Max Wind Speed 9 mph    
Max Gust Speed -    
Visibility 5.9 miles    
Events Fog , Rain    
Averages and records for this station are not official NWS values.
T = Trace of Precipitation, MM = Missing Value Source: Averaged Metar Reports

Daily Weather History Graph

Daily Weather History Graph

Search for Another Location

Airport:

Trip Planner

Search our weather history database for the weather conditions in past years. The results will help you decide how hot, cold, wet, or windy it might be!

Date:

Astronomy

Oct. 05, 2012 Rise Set
Actual Time 7:29 AM BST 6:41 PM BST
Civil Twilight 6:52 AM BST 7:18 PM BST
Nautical Twilight 6:09 AM BST 8:01 PM BST
Astronomical Twilight 5:25 AM BST 8:45 PM BST
Moon 9:00 PM BST (10/5) 1:18 PM BST (10/5)
Length of Visible Light 12h 26m
Length of Day
11h 12m
Waning Gibbous, 76% of the Moon is Illuminated
Oct 5
Waning Gibbous
Oct 8
Last Quarter
Oct 15
New
Oct 22
First Quarter
Oct 29
Full

Hourly Weather History & Observations

Time (BST) Temp. Windchill Dew Point Humidity Pressure Visibility Wind Dir Wind Speed Gust Speed Precip Events Conditions
12:20 AM 46.4 °F 44.3 °F 42.8 °F 87% 29.50 in 6.2 mi East 4.6 mph - N/A Rain Light Rain
12:50 AM 44.6 °F 42.2 °F 42.8 °F 93% 29.50 in 6.2 mi SE 4.6 mph - N/A Rain Light Rain
1:20 AM 44.6 °F 41.4 °F 42.8 °F 93% 29.50 in 6.2 mi ESE 5.8 mph - N/A Rain Light Rain
1:50 AM 44.6 °F 42.2 °F 42.8 °F 93% 29.50 in 6.2 mi SSE 4.6 mph - N/A Rain Light Rain
2:20 AM 44.6 °F 43.1 °F 42.8 °F 93% 29.47 in 6.2 mi SSE 3.5 mph - N/A Rain Light Rain
2:50 AM 44.6 °F 43.1 °F 42.8 °F 93% 29.47 in 6.2 mi NNE 3.5 mph - N/A   Mostly Cloudy
3:20 AM 42.8 °F - 41.0 °F 93% 29.47 in 6.2 mi Variable 2.3 mph - N/A   Partly Cloudy
3:50 AM 41.0 °F - 39.2 °F 93% 29.47 in - Variable 2.3 mph - N/A   Scattered Clouds
4:20 AM 41.0 °F 39.0 °F 39.2 °F 93% 29.47 in 2.5 mi North 3.5 mph - N/A Fog Patches of Fog
4:50 AM 42.8 °F - 41.0 °F 93% 29.47 in 3.1 mi Calm Calm - N/A Fog Patches of Fog
5:20 AM 39.2 °F - 39.2 °F 100% 29.47 in 2.5 mi Variable 2.3 mph - N/A Fog Patches of Fog
5:50 AM 39.2 °F 37.0 °F 37.4 °F 93% 29.47 in 4.3 mi SW 3.5 mph - N/A Rain Light Rain
6:20 AM 41.0 °F 39.0 °F 39.2 °F 93% 29.47 in 5.0 mi West 3.5 mph - N/A Rain Light Rain
6:50 AM 41.0 °F - 41.0 °F 100% 29.47 in 5.0 mi Calm Calm - N/A Rain Light Rain
7:20 AM 39.2 °F 37.0 °F 39.2 °F 100% 29.47 in 5.0 mi WSW 3.5 mph - N/A   Mostly Cloudy
7:50 AM 41.0 °F - 41.0 °F 100% 29.47 in 6.2 mi Calm Calm - N/A Fog Scattered Clouds
8:20 AM 39.2 °F - 39.2 °F 100% 29.47 in 6.2 mi NNW 2.3 mph - N/A Fog Patches of Fog
8:50 AM 41.0 °F 38.0 °F 41.0 °F 100% 29.50 in 6.2 mi West 4.6 mph - N/A Fog Partly Cloudy
9:20 AM 44.6 °F 42.2 °F 42.8 °F 93% 29.50 in 6.2 mi WSW 4.6 mph - N/A Fog Partly Cloudy
9:50 AM 46.4 °F 45.2 °F 44.6 °F 93% 29.53 in 6.2 mi Variable 3.5 mph - N/A   Scattered Clouds
10:20 AM 48.2 °F - 44.6 °F 87% 29.53 in 6.2 mi Variable 3.5 mph - N/A   Scattered Clouds
10:50 AM 50.0 °F - 44.6 °F 82% 29.53 in 6.2 mi Variable 3.5 mph - N/A   Scattered Clouds
11:20 AM 50.0 °F - 44.6 °F 82% 29.56 in 6.2 mi WNW 4.6 mph - N/A   Scattered Clouds
11:50 AM 50.0 °F - 44.6 °F 82% 29.56 in 6.2 mi Variable 3.5 mph - N/A   Scattered Clouds
12:20 PM 51.8 °F - 44.6 °F 76% 29.56 in 6.2 mi WNW 8.1 mph - N/A   Scattered Clouds
12:50 PM 53.6 °F - 44.6 °F 72% 29.59 in 6.2 mi West 8.1 mph - N/A   Scattered Clouds
1:20 PM 53.6 °F - 44.6 °F 72% 29.59 in 6.2 mi WNW 8.1 mph - N/A   Scattered Clouds
1:50 PM 53.6 °F - 44.6 °F 72% 29.59 in 6.2 mi NW 8.1 mph - N/A   Scattered Clouds
2:20 PM 53.6 °F - 42.8 °F 67% 29.59 in 6.2 mi NW 9.2 mph - N/A   Scattered Clouds
2:50 PM 53.6 °F - 42.8 °F 67% 29.59 in 6.2 mi WNW 9.2 mph - N/A   Scattered Clouds
3:20 PM 51.8 °F - 42.8 °F 71% 29.62 in 6.2 mi West 6.9 mph - N/A   Scattered Clouds
3:50 PM 53.6 °F - 44.6 °F 72% 29.62 in 6.2 mi West 6.9 mph - N/A   Mostly Cloudy
4:20 PM 51.8 °F - 44.6 °F 76% 29.65 in 6.2 mi WNW 9.2 mph - N/A   Mostly Cloudy
4:50 PM 51.8 °F - 44.6 °F 76% 29.65 in 6.2 mi WNW 5.8 mph - N/A   Mostly Cloudy
5:20 PM 51.8 °F - 44.6 °F 76% 29.65 in 6.2 mi West 6.9 mph - N/A   Scattered Clouds
5:50 PM 51.8 °F - 44.6 °F 76% 29.65 in 6.2 mi West 6.9 mph - N/A   Scattered Clouds
6:20 PM 51.8 °F - 44.6 °F 76% 29.65 in 6.2 mi West 8.1 mph - N/A   Scattered Clouds
6:50 PM 50.0 °F - 42.8 °F 76% 29.65 in 6.2 mi West 5.8 mph - N/A   Scattered Clouds
7:20 PM 46.4 °F 42.9 °F 42.8 °F 87% 29.68 in 6.2 mi WSW 6.9 mph - N/A   Partly Cloudy
7:50 PM 42.8 °F 38.6 °F 39.2 °F 87% 29.68 in 6.2 mi WSW 6.9 mph - N/A   Partly Cloudy
8:20 PM 44.6 °F 41.4 °F 39.2 °F 81% 29.68 in 6.2 mi WSW 5.8 mph - N/A   Partly Cloudy
8:50 PM 42.8 °F 39.3 °F 39.2 °F 87% 29.68 in 6.2 mi WSW 5.8 mph - N/A   Partly Cloudy
9:20 PM 42.8 °F 41.1 °F 39.2 °F 87% 29.71 in 6.2 mi Variable 3.5 mph - N/A   Scattered Clouds
9:50 PM 44.6 °F - 41.0 °F 87% 29.71 in 6.2 mi Variable 2.3 mph - N/A   Scattered Clouds
10:20 PM 44.6 °F 43.1 °F 41.0 °F 87% 29.71 in 6.2 mi West 3.5 mph - N/A   Partly Cloudy
10:50 PM 42.8 °F 39.3 °F 41.0 °F 93% 29.71 in 6.2 mi West 5.8 mph - N/A   Scattered Clouds
11:20 PM 42.8 °F 39.3 °F 41.0 °F 93% 29.71 in 6.2 mi West 5.8 mph - N/A   Partly Cloudy
11:50 PM 42.8 °F 39.3 °F 41.0 °F 93% 29.71 in 6.2 mi West 5.8 mph - N/A   Partly Cloudy